User: anonymous   Login
Location: Unspecified
(0.0000°N, 0.0000°E)
Time: 00:22:16
(UTC+00:00)
Language:

ISS - Orbit

View from above orbital plane
View from above orbital plane
View from above satellite
View from above satellite

Ground track
Ground track

The orbit data is extracted from the following two-line orbital elements,

1 25544U 98067A   19116.52628668  .00016717  00000-0  10270-3 0  9020
2 25544  51.6390 257.9866 0001355 230.6680 129.4352 15.52597734  7223
Epoch (UTC): 26 April 2019 12:37:51
Eccentricity: 0.0001355
inclination: 51.6390°
perigee height: 408 km
apogee height: 410 km
right ascension of ascending node: 257.9866°
argument of perigee: 230.6680°
revolutions per day: 15.52597734
mean anomaly at epoch: 129.4352°
orbit number at epoch: 722

The dashed part of the orbit path shows where the satellite is in the earth's shadow,  

DLR